N0DZQ Weather Reports


time (UTC)temp
C
wind
direction
speed
KPH
gust
KPH
rain 1hr
cm
rain 24hr
cm
rain mn
cm
humidity
%
barometer
mb
20260906162558 24 0 1.6 8.0 0.00 0.00 0.00 82 1020.8
20260906162057 24 75 3.2 8.0 0.00 0.00 0.00 82 1020.9
20260906161612 23 86 0.0 8.0 0.00 0.00 0.00 82 1021.0
20260906161056 23 0 3.2 8.0 0.00 0.00 0.00 83 1020.9
20260906160556 23 0 0.0 6.4 0.00 0.00 0.00 84 1021.0
20260906160104 23 5 0.0 6.4 0.00 0.00 0.00 84 1021.0
20260906155621 23 319 3.2 6.4 0.00 0.00 0.00 85 1020.9
20260906155058 23 0 0.0 6.4 0.00 0.00 0.00 85 1020.8
20260906154608 22 0 0.0 3.2 0.00 0.00 0.00 88 1020.8
20260906154100 22 0 0.0 8.0 0.00 0.00 0.00 87 1020.9
20260906153602 22 0 1.6 8.0 0.00 0.00 0.00 87 1020.9
20260906153105 22 0 0.0 6.4 0.00 0.00 0.00 88 1021.0
20260906152559 22 98 0.0 12.9 0.00 0.00 0.00 88 1021.1
20260906152058 22 35 1.6 12.9 0.00 0.00 0.00 89 1021.2
20260906151606 21 0 0.0 11.3 0.00 0.00 0.00 90 1021.2
20260906151101 21 41 0.0 11.3 0.00 0.00 0.00 89 1021.1
20260906150557 21 357 3.2 11.3 0.00 0.00 0.00 89 1021.0
20260906150116 21 27 3.2 9.7 0.00 0.00 0.00 89 1021.0
20260906145600 21 0 1.6 6.4 0.00 0.03 0.00 91 1020.9
20260906145057 21 115 0.0 6.4 0.00 0.03 0.00 92 1021.0
20260906144611 21 286 3.2 6.4 0.00 0.03 0.00 92 1021.0
20260906144100 21 57 0.0 3.2 0.00 0.03 0.00 93 1021.0
20260906143559 21 0 0.0 11.3 0.00 0.03 0.00 94 1021.0
20260906143105 20 60 1.6 11.3 0.00 0.03 0.00 95 1021.0
20260906142557 20 0 1.6 8.0 0.00 0.03 0.00 96 1021.0
20260906142058 20 176 1.6 6.4 0.00 0.03 0.00 97 1021.0
20260906141630 20 0 0.0 6.4 0.00 0.03 0.00 97 1020.9
20260906141057 20 0 0.0 6.4 0.00 0.03 0.00 97 1021.0
20260906140557 20 0 0.0 6.4 0.00 0.03 0.00 98 1020.9
20260906140113 19 0 1.6 6.4 0.00 0.03 0.00 98 1020.9
20260906135601 19 140 0.0 3.2 0.00 0.03 0.00 99 1020.9
20260906135102 19 0 0.0 8.0 0.00 0.03 0.00 99 1020.7
20260906134631 19 11 0.0 8.0 0.00 0.03 0.00 99 1020.6
20260906134057 19 90 0.0 6.4 0.00 0.03 0.00 99 1020.6
20260906133600 19 0 0.0 6.4 0.00 0.03 0.00 99 1020.6
20260906133113 19 69 0.0 4.8 0.00 0.03 0.00 99 1020.6
20260906132559 19 110 0.0 4.8 0.00 0.03 0.00 99 1020.5
20260906132100 18 0 0.0 3.2 0.00 0.03 0.00 99 1020.4
20260906131624 18 0 0.0 3.2 0.00 0.03 0.00 99 1020.4
20260906131103 18 0 0.0 3.2 0.00 0.03 0.00 99 1020.4
20260906130601 18 0 0.0 4.8 0.00 0.03 0.00 99 1020.4
20260906130148 18 168 0.0 4.8 0.00 0.03 0.00 99 1020.5
20260906125600 18 0 0.0 4.8 0.00 0.03 0.00 99 1020.4
20260906125101 18 0 0.0 4.8 0.00 0.03 0.00 99 1020.4
20260906124610 18 0 0.0 3.2 0.00 0.03 0.00 99 1020.3
20260906124113 18 0 0.0 1.6 0.00 0.03 0.00 99 1020.4
20260906123557 18 67 0.0 1.6 0.00 0.03 0.00 99 1020.3
20260906123105 18 64 0.0 1.6 0.00 0.03 0.00 99 1020.3
20260906122557 17 0 0.0 0.0 0.00 0.03 0.00 99 1020.3
20260906122058 17 0 0.0 0.0 0.00 0.03 0.00 99 1020.2
20260906121610 17 0 0.0 0.0 0.00 0.03 0.00 99 1020.1
20260906121057 17 0 0.0 1.6 0.00 0.03 0.00 99 1020.1
20260906120600 17 0 0.0 1.6 0.00 0.03 0.00 99 1020.0
20260906120112 17 131 0.0 0.0 0.00 0.03 0.00 99 1020.0
20260906115600 17 0 0.0 0.0 0.00 0.03 0.00 99 1020.0
20260906115100 17 0 0.0 0.0 0.00 0.03 0.00 99 1020.0
20260906114616 17 0 0.0 0.0 0.00 0.03 0.00 99 1019.9
20260906114056 17 0 0.0 0.0 0.00 0.03 0.00 99 1019.9
20260906113556 17 0 0.0 0.0 0.00 0.03 0.00 98 1020.0
20260906113109 17 0 0.0 0.0 0.00 0.03 0.00 98 1019.9
20260906112557 17 0 0.0 0.0 0.00 0.03 0.00 98 1019.8
20260906112057 17 0 0.0 0.0 0.00 0.03 0.00 98 1019.8
20260906111609 17 0 0.0 0.0 0.00 0.03 0.00 98 1019.8
20260906111058 17 0 0.0 0.0 0.00 0.03 0.00 98 1019.7
20260906110557 17 0 0.0 0.0 0.00 0.03 0.00 98 1019.7
20260906110105 17 0 0.0 0.0 0.00 0.03 0.00 98 1019.7
20260906105556 17 0 0.0 0.0 0.00 0.03 0.00 98 1019.6
20260906105056 17 0 0.0 0.0 0.00 0.03 0.00 98 1019.5
20260906104607 17 0 0.0 0.0 0.00 0.03 0.00 98 1019.5
20260906104058 17 0 0.0 0.0 0.00 0.03 0.00 98 1019.4
20260906103557 17 0 0.0 0.0 0.00 0.03 0.00 98 1019.4
20260906103105 17 0 0.0 0.0 0.00 0.03 0.00 98 1019.5
20260906102557 17 0 0.0 0.0 0.00 0.03 0.00 98 1019.5
20260906102057 17 0 0.0 0.0 0.00 0.03 0.00 98 1019.5
20260906101604 17 0 0.0 0.0 0.00 0.03 0.00 98 1019.4
20260906101059 17 0 0.0 0.0 0.00 0.03 0.00 98 1019.4
20260906100600 18 0 0.0 0.0 0.00 0.03 0.00 98 1019.3
20260906100107 18 0 0.0 0.0 0.00 0.03 0.00 98 1019.3
20260906095559 18 0 0.0 0.0 0.00 0.03 0.00 98 1019.2
20260906095056 18 0 0.0 0.0 0.00 0.03 0.00 98 1018.9
20260906094608 18 0 0.0 0.0 0.00 0.03 0.00 98 1018.9
20260906094057 18 0 0.0 0.0 0.00 0.03 0.00 98 1018.9
20260906093558 18 0 0.0 0.0 0.00 0.03 0.00 98 1018.8
20260906093104 18 0 0.0 0.0 0.00 0.03 0.00 98 1018.8
20260906092557 18 0 0.0 0.0 0.00 0.03 0.00 98 1018.7
20260906092057 18 0 0.0 0.0 0.00 0.03 0.00 98 1018.7
20260906091605 18 0 0.0 0.0 0.00 0.03 0.00 98 1018.7
20260906091057 18 0 0.0 0.0 0.00 0.03 0.00 98 1018.8
20260906090556 18 0 0.0 0.0 0.00 0.03 0.00 98 1018.9
20260906090104 18 0 0.0 0.0 0.00 0.03 0.00 98 1018.8
20260906085600 18 0 0.0 0.0 0.00 0.03 0.00 98 1018.7
20260906085056 18 0 0.0 0.0 0.00 0.03 0.00 98 1018.7
20260906084619 18 0 0.0 0.0 0.00 0.03 0.00 98 1018.7
20260906084100 18 0 0.0 0.0 0.00 0.03 0.00 98 1018.7
20260906083557 18 0 0.0 0.0 0.00 0.03 0.00 98 1018.7
20260906083104 18 0 0.0 0.0 0.00 0.03 0.00 98 1018.7
20260906082559 18 0 0.0 0.0 0.00 0.03 0.00 98 1018.7
20260906082100 18 0 0.0 0.0 0.00 0.03 0.00 98 1018.7
20260906081606 18 0 0.0 0.0 0.00 0.03 0.00 98 1018.6
20260906081056 18 0 0.0 0.0 0.00 0.03 0.00 98 1018.6
20260906080600 18 0 0.0 0.0 0.00 0.03 0.00 98 1018.7
20260906080106 18 0 0.0 0.0 0.00 0.03 0.00 98 1018.7
20260906075559 18 0 0.0 0.0 0.00 0.03 0.00 98 1018.6
20260906075057 17 0 0.0 0.0 0.00 0.03 0.00 98 1018.8
20260906074610 17 0 0.0 0.0 0.00 0.03 0.00 98 1018.8
20260906074057 17 0 0.0 0.0 0.00 0.03 0.00 98 1018.8
20260906073557 17 0 0.0 0.0 0.00 0.03 0.00 98 1018.8
20260906073105 17 0 0.0 0.0 0.00 0.03 0.00 97 1018.8
20260906072557 18 0 0.0 0.0 0.00 0.03 0.00 98 1018.8
20260906072057 18 0 0.0 0.0 0.00 0.03 0.00 98 1018.8
20260906071606 17 0 0.0 0.0 0.00 0.03 0.00 98 1018.9
20260906071101 17 0 0.0 0.0 0.00 0.03 0.00 98 1019.1
20260906070556 17 0 0.0 0.0 0.00 0.03 0.00 97 1019.1
20260906070109 17 0 0.0 0.0 0.00 0.03 0.00 97 1019.1
20260906065557 17 0 0.0 0.0 0.00 0.03 0.00 97 1019.2
20260906065057 18 0 0.0 0.0 0.00 0.03 0.00 97 1019.2
20260906064602 18 0 0.0 0.0 0.00 0.03 0.00 97 1019.2
20260906064100 18 0 0.0 0.0 0.00 0.03 0.00 97 1019.2
20260906063556 18 0 0.0 0.0 0.00 0.03 0.00 97 1019.2
20260906063103 18 0 0.0 0.0 0.00 0.03 0.00 97 1019.2
20260906062557 18 0 0.0 0.0 0.00 0.03 0.00 97 1019.3
20260906062056 18 0 0.0 0.0 0.00 0.03 0.00 97 1019.4
20260906061629 18 0 0.0 0.0 0.00 0.03 0.00 97 1019.5
20260906061058 18 0 0.0 0.0 0.00 0.03 0.00 97 1019.5
20260906060556 18 0 0.0 0.0 0.00 0.03 0.00 97 1019.4
20260906060128 18 0 0.0 0.0 0.00 0.03 0.00 97 1019.4
20260906055556 18 0 0.0 0.0 0.00 0.03 0.00 97 1019.4
20260906055057 18 0 0.0 0.0 0.00 0.03 0.00 97 1019.4
20260906054605 18 0 0.0 0.0 0.00 0.03 0.00 97 1019.2
20260906054057 18 0 0.0 0.0 0.00 0.03 0.00 97 1019.3
20260906053557 18 0 0.0 0.0 0.00 0.03 0.00 97 1019.3
20260906053102 18 0 0.0 0.0 0.00 0.03 0.00 97 1019.4
20260906052557 18 0 0.0 0.0 0.00 0.03 0.00 97 1019.3
20260906052057 18 0 0.0 0.0 0.00 0.03 0.00 97 1019.4
20260906051609 18 0 0.0 0.0 0.00 0.03 0.00 97 1019.3
20260906051057 18 0 0.0 0.0 0.00 0.03 0.00 97 1019.4
20260906050556 18 0 0.0 0.0 0.00 0.03 0.00 97 1019.4
20260906050108 18 0 0.0 0.0 0.00 0.03 0.00 97 1019.3
20260906045603 18 0 0.0 0.0 0.00 0.03 0.03 97 1019.3
20260906045059 18 0 0.0 0.0 0.00 0.03 0.03 97 1019.2
20260906044605 18 0 0.0 0.0 0.00 0.03 0.03 97 1019.4
20260906044058 18 0 0.0 0.0 0.00 0.03 0.03 97 1019.3
20260906043600 19 0 0.0 0.0 0.00 0.03 0.03 97 1019.5
20260906043107 19 0 0.0 0.0 0.00 0.03 0.03 96 1019.5
20260906042556 19 0 0.0 0.0 0.00 0.03 0.03 97 1019.4
20260906042057 19 0 0.0 0.0 0.00 0.03 0.03 96 1019.4
20260906041605 19 0 0.0 0.0 0.00 0.03 0.03 96 1019.4
20260906041056 19 0 0.0 0.0 0.00 0.03 0.03 96 1019.4
20260906040556 19 0 0.0 0.0 0.00 0.03 0.03 96 1019.5
20260906040109 19 0 0.0 0.0 0.00 0.03 0.03 96 1019.6
20260906035557 19 0 0.0 0.0 0.00 0.03 0.03 96 1019.4
20260906035057 19 0 0.0 0.0 0.00 0.03 0.03 96 1019.4
20260906034607 19 0 0.0 0.0 0.00 0.03 0.03 96 1019.5
20260906034058 19 0 0.0 0.0 0.00 0.03 0.03 96 1019.5
20260906033556 19 0 0.0 0.0 0.00 0.03 0.03 96 1019.5
20260906033109 19 0 0.0 0.0 0.00 0.03 0.03 95 1019.6
20260906032556 19 0 0.0 0.0 0.00 0.03 0.03 95 1019.6
20260906032057 19 0 0.0 0.0 0.00 0.03 0.03 95 1019.5
20260906031605 19 0 0.0 0.0 0.00 0.03 0.03 95 1019.7
20260906031103 19 0 0.0 0.0 0.00 0.03 0.03 95 1019.7
20260906030557 19 0 0.0 0.0 0.00 0.03 0.03 95 1019.8
20260906030111 19 0 0.0 0.0 0.00 0.03 0.03 95 1019.7
20260906025559 19 0 0.0 0.0 0.00 0.03 0.03 95 1019.7
20260906025059 19 0 0.0 0.0 0.00 0.03 0.03 95 1019.9
20260906024608 19 0 0.0 0.0 0.00 0.03 0.03 95 1019.8
20260906024059 19 0 0.0 0.0 0.00 0.03 0.03 94 1019.5
20260906023557 19 0 0.0 0.0 0.00 0.03 0.03 93 1019.4
20260906023110 20 0 0.0 0.0 0.00 0.03 0.03 93 1019.2
20260906022556 20 0 0.0 0.0 0.00 0.03 0.03 93 1019.2
20260906022057 20 0 0.0 0.0 0.00 0.03 0.03 92 1019.1
20260906021613 20 0 0.0 0.0 0.00 0.03 0.03 92 1019.1
20260906021056 20 0 0.0 0.0 0.00 0.03 0.03 92 1018.7
20260906020557 20 0 0.0 0.0 0.00 0.03 0.03 91 1018.6
20260906020128 20 0 0.0 0.0 0.00 0.03 0.03 91 1018.5
20260906015557 20 0 0.0 0.0 0.00 0.03 0.03 90 1018.3
20260906015057 20 0 0.0 0.0 0.00 0.03 0.03 89 1018.2
20260906014608 21 0 0.0 0.0 0.00 0.03 0.03 89 1018.1
20260906014056 21 0 0.0 0.0 0.00 0.03 0.03 88 1017.9
20260906013558 21 0 0.0 0.0 0.00 0.03 0.03 87 1017.8
20260906013106 21 0 0.0 0.0 0.00 0.03 0.03 87 1017.8
20260906012559 21 0 0.0 0.0 0.00 0.03 0.03 86 1017.8
20260906012059 22 0 0.0 1.6 0.00 0.03 0.03 85 1017.6
20260906011608 22 0 0.0 1.6 0.00 0.03 0.03 85 1017.5
20260906011057 22 0 0.0 1.6 0.00 0.03 0.03 86 1017.1
20260906010557 22 0 0.0 0.0 0.00 0.03 0.03 86 1016.9
20260906010112 22 0 0.0 0.0 0.00 0.03 0.03 85 1016.8
20260906005558 22 0 0.0 0.0 0.00 0.03 0.03 84 1016.8
20260906005059 22 0 0.0 0.0 0.00 0.03 0.03 83 1016.8
20260906004603 23 0 0.0 0.0 0.00 0.03 0.03 82 1017.0
20260906004058 23 0 0.0 0.0 0.00 0.03 0.03 81 1016.9
20260906003558 23 0 0.0 0.0 0.00 0.03 0.03 79 1016.8
20260906003108 24 0 0.0 0.0 0.00 0.03 0.03 79 1016.9
20260906002559 24 0 0.0 1.6 0.00 0.03 0.03 78 1016.9
20260906002057 25 0 0.0 3.2 0.00 0.03 0.03 76 1016.8
20260906001606 25 0 0.0 4.8 0.00 0.03 0.03 76 1016.8
20260906001056 25 0 0.0 8.0 0.00 0.03 0.03 76 1016.8
20260906000558 25 133 0.0 8.0 0.00 0.03 0.03 75 1016.8
20260906000111 25 158 0.0 8.0 0.00 0.03 0.03 74 1016.9
20260905235557 26 0 0.0 8.0 0.00 0.03 0.03 74 1016.7
20260905235057 26 90 0.0 8.0 0.00 0.03 0.03 73 1016.7
20260905234609 26 0 0.0 8.0 0.00 0.03 0.03 73 1016.6
20260905234057 26 0 1.6 8.0 0.00 0.03 0.03 72 1016.7
20260905233600 26 0 0.0 4.8 0.00 0.03 0.03 72 1016.6
20260905233120 26 0 0.0 4.8 0.00 0.03 0.03 71 1016.6
20260905232556 26 97 0.0 6.4 0.00 0.03 0.03 72 1016.5
20260905232057 27 0 0.0 6.4 0.00 0.03 0.03 71 1016.6
20260905231605 27 94 0.0 8.0 0.00 0.03 0.03 70 1016.5
20260905231057 27 0 0.0 8.0 0.00 0.03 0.03 71 1016.4
20260905230559 27 0 1.6 14.5 0.00 0.03 0.03 70 1016.4
20260905230110 27 96 3.2 14.5 0.00 0.03 0.03 69 1016.4
20260905225556 28 115 0.0 11.3 0.00 0.03 0.03 68 1016.4
20260905225057 28 103 0.0 8.0 0.00 0.03 0.03 68 1016.4
20260905224609 28 0 1.6 8.0 0.00 0.03 0.03 68 1016.5
20260905224057 28 127 1.6 8.0 0.00 0.03 0.03 68 1016.6
20260905223556 28 115 1.6 8.0 0.00 0.03 0.03 67 1016.5
20260905223106 28 347 0.0 8.0 0.00 0.03 0.03 68 1016.6
20260905222557 28 100 1.6 8.0 0.00 0.03 0.03 67 1016.7
20260905222100 28 151 1.6 11.3 0.00 0.03 0.03 66 1016.8
20260905221605 28 50 1.6 11.3 0.00 0.03 0.03 66 1016.7
20260905221056 28 209 1.6 11.3 0.00 0.03 0.03 65 1016.7
20260905220557 28 117 3.2 11.3 0.00 0.03 0.03 66 1016.5
20260905220107 28 0 3.2 12.9 0.00 0.03 0.03 67 1016.4
20260905215557 28 134 0.0 12.9 0.00 0.03 0.03 67 1016.4
20260905215057 28 130 3.2 9.7 0.00 0.03 0.03 67 1016.4
20260905214607 28 133 1.6 9.7 0.00 0.03 0.03 68 1016.4
20260905214057 28 210 3.2 6.4 0.00 0.03 0.03 67 1016.5
20260905213558 28 60 0.0 6.4 0.00 0.03 0.03 67 1016.6
20260905213113 28 203 1.6 6.4 0.00 0.03 0.03 67 1016.7
20260905212557 28 125 1.6 11.3 0.00 0.03 0.03 68 1016.9
20260905212057 28 213 1.6 11.3 0.00 0.03 0.03 67 1017.1
20260905211612 28 75 0.0 8.0 0.00 0.03 0.03 68 1017.2
20260905211057 28 72 1.6 11.3 0.00 0.03 0.03 69 1017.4
20260905210557 28 0 0.0 11.3 0.00 0.03 0.03 70 1017.4
20260905210112 28 139 1.6 4.8 0.00 0.03 0.03 68 1017.4
20260905205559 28 0 0.0 9.7 0.00 0.03 0.03 71 1017.5
20260905205058 28 0 0.0 9.7 0.00 0.03 0.03 72 1017.6
20260905204603 28 132 0.0 6.4 0.00 0.03 0.03 70 1017.7
20260905204057 28 0 1.6 6.4 0.00 0.03 0.03 71 1017.8
20260905203601 28 0 0.0 6.4 0.00 0.03 0.03 71 1018.0
20260905203106 28 153 0.0 6.4 0.00 0.03 0.03 71 1018.0
20260905202600 28 116 0.0 6.4 0.00 0.03 0.03 70 1017.9
20260905202057 28 0 0.0 4.8 0.00 0.03 0.03 72 1018.0
20260905201607 28 335 0.0 4.8 0.00 0.03 0.03 71 1018.1
20260905201056 28 122 1.6 4.8 0.00 0.03 0.03 71 1018.1
20260905200559 27 110 0.0 8.0 0.00 0.03 0.03 71 1018.1
20260905200106 27 0 1.6 8.0 0.00 0.03 0.03 72 1018.3
20260905195558 27 0 1.6 8.0 0.00 0.03 0.03 72 1018.4
20260905195057 27 345 1.6 8.0 0.00 0.03 0.03 73 1018.5
20260905194607 27 0 0.0 8.0 0.00 0.03 0.03 71 1018.5
20260905194057 27 0 0.0 8.0 0.00 0.03 0.03 72 1018.3
20260905193556 28 49 0.0 8.0 0.00 0.03 0.03 72 1018.4
20260905193103 28 0 0.0 4.8 0.00 0.03 0.03 71 1018.4
20260905192558 28 0 0.0 4.8 0.00 0.03 0.03 73 1018.4
20260905192056 27 68 0.0 4.8 0.00 0.03 0.03 74 1018.4
20260905191603 27 68 0.0 8.0 0.00 0.03 0.03 74 1018.7
20260905191057 27 0 1.6 8.0 0.00 0.03 0.03 75 1018.6
20260905190600 27 38 1.6 4.8 0.00 0.03 0.03 73 1018.5
20260905190104 27 262 1.6 4.8 0.00 0.03 0.03 75 1018.6
20260905185600 27 0 1.6 6.4 0.00 0.03 0.03 73 1018.5
20260905185057 27 0 0.0 8.0 0.00 0.03 0.03 74 1018.7
20260905184611 27 115 1.6 8.0 0.00 0.03 0.03 72 1018.6
20260905184057 27 105 0.0 6.4 0.00 0.03 0.03 73 1018.4
20260905183557 27 105 0.0 1.6 0.00 0.03 0.03 75 1018.5
20260905183118 27 0 0.0 4.8 0.00 0.03 0.03 77 1018.6
20260905182556 26 318 0.0 8.0 0.00 0.03 0.03 78 1018.7
20260905182059 26 37 1.6 9.7 0.00 0.03 0.03 81 1018.6
20260905181609 26 89 3.2 9.7 0.00 0.03 0.03 78 1018.6
20260905181057 26 77 0.0 8.0 0.00 0.03 0.03 77 1018.6
20260905180559 25 24 0.0 6.4 0.00 0.03 0.03 80 1018.9
20260905180109 25 20 0.0 4.8 0.00 0.03 0.03 81 1018.9
20260905175558 24 0 0.0 8.0 0.00 0.03 0.03 84 1018.8
20260905175059 24 75 0.0 8.0 0.00 0.03 0.03 83 1018.8
20260905174605 24 91 0.0 6.4 0.00 0.03 0.03 82 1019.0
20260905174057 24 113 1.6 8.0 0.00 0.03 0.03 82 1019.0
20260905173557 24 0 1.6 8.0 0.00 0.03 0.03 84 1019.1
20260905173115 24 117 1.6 6.4 0.00 0.03 0.03 83 1019.2
20260905172558 24 81 0.0 4.8 0.00 0.03 0.03 84 1019.1
20260905172058 23 0 0.0 6.4 0.00 0.03 0.03 85 1019.1
20260905171605 23 114 1.6 6.4 0.00 0.03 0.03 88 1019.2
20260905171056 23 0 0.0 4.8 0.00 0.03 0.03 86 1019.2
20260905170559 23 0 0.0 0.0 0.00 0.03 0.03 87 1019.4
20260905170114 23 0 0.0 1.6 0.00 0.03 0.03 87 1019.4
20260905165559 23 0 0.0 1.6 0.00 0.03 0.03 89 1019.6
20260905165057 23 0 0.0 6.4 0.00 0.03 0.03 89 1019.7
20260905164605 22 0 1.6 6.4 0.00 0.03 0.03 89 1019.7
20260905164057 22 0 0.0 3.2 0.00 0.03 0.03 88 1019.6
20260905163600 23 56 0.0 3.2 0.00 0.03 0.03 88 1019.6
20260905163110 22 0 0.0 0.0 0.00 0.03 0.03 89 1019.6